This is the latest recevied weather packets stored in our database for station/object HB9TJM-8. If no packets are shown the sender has not sent any weather packets the latest 10 day(s).
| Time | Temp. | Humidity | Pressure | Rain* | Wind** | Luminosity | Snow |
|---|---|---|---|---|---|---|---|
| 1777379515 | 13.33° C | 70% | 1015.6 hPa | 0.51 mm | - | 265 W/m² | - |
| 1777379208 | 13.33° C | 70% | 1015.7 hPa | 0.51 mm | - | 231 W/m² | - |
| 1777378901 | 12.78° C | 73% | 1015.8 hPa | 0.51 mm | - | 172 W/m² | - |
| 1777378594 | 12.78° C | 70% | 1015.9 hPa | 0.51 mm | - | 157 W/m² | - |
| 1777378287 | 12.78° C | 68% | 1016.2 hPa | 0.25 mm | - | 132 W/m² | - |
| 1777377980 | 12.78° C | 72% | 1016.3 hPa | 0.25 mm | - | 144 W/m² | - |
| 1777377980 | 12.78° C | 72% | 1016.3 hPa | 0.25 mm | - | 144 W/m² | - |
| 1777377673 | 12.22° C | 74% | 1016.3 hPa | 0.25 mm | - | 182 W/m² | - |
| 1777377365 | 12.22° C | 78% | 1016.6 hPa | 0.25 mm | - | 184 W/m² | - |
| 1777377365 | 12.22° C | 78% | 1016.6 hPa | 0.25 mm | - | 184 W/m² | - |
| 1777377057 | 11.67° C | 75% | 1015.9 hPa | 0 mm | - | 96 W/m² | - |
| 1777377057 | 11.67° C | 75% | 1015.9 hPa | 0 mm | - | 96 W/m² | - |
| 1777376750 | 12.22° C | 76% | 1015.9 hPa | 0 mm | - | 109 W/m² | - |
| 1777376443 | 12.22° C | 77% | 1016 hPa | 0 mm | - | 119 W/m² | - |
| 1777376443 | 12.22° C | 77% | 1016 hPa | 0 mm | - | 119 W/m² | - |
| 1777376136 | 12.22° C | 76% | 1016.4 hPa | 0.25 mm | - | 84 W/m² | - |
| 1777375828 | 12.22° C | 73% | 1016.5 hPa | 0 mm | - | 68 W/m² | - |
| 1777375521 | 12.22° C | 72% | 1016.7 hPa | 0 mm | - | 66 W/m² | - |
| 1777374907 | 12.22° C | 69% | 1016.8 hPa | 0 mm | - | 114 W/m² | - |
| 1777374907 | 12.22° C | 69% | 1016.8 hPa | 0 mm | - | 114 W/m² | - |
| 1777374599 | 12.78° C | 65% | 1016.8 hPa | 0 mm | - | 126 W/m² | - |
| 1777374599 | 12.78° C | 65% | 1016.8 hPa | 0 mm | - | 126 W/m² | - |
| 1777374292 | 12.78° C | 69% | 1016.4 hPa | 0 mm | - | 157 W/m² | - |
| 1777374292 | 12.78° C | 69% | 1016.4 hPa | 0 mm | - | 157 W/m² | - |
| 1777373984 | 12.78° C | 69% | 1016.3 hPa | 0 mm | - | 161 W/m² | - |
* Rain latest hour (hover to see other rain measurements)
** Current wind speed in m/s (hover to see current wind gust speed)